Location: Franzen
(48.6167°N, 15.3833°E)
Time: 10:18:56
(UTC+00:00)

Cosmos 1741 Rocket - Pass Details

Date: 22 April 2021
Orbit: 762 x 781 km, 74.0° (Epoch: 16 May)

Event Time Altitude Azimuth Distance (km) Brightness Sun altitude
Exits shadow 20:24:55 40° 120° (ESE) 1,129 4.4 -20.3°
Maximum altitude 20:25:28 42° 104° (ESE) 1,107 4.4 -20.3°
Drops below altitude 10° 20:30:24 10° 35° (NE) 2,329 6.7 -20.8°
Sets 20:32:53 0° 29° (NNE) 3,257 7.6 -21.1°
